[[{"header":{"parameterUnit":"m.s-1","parameterCategory":1,"la1":30.2991,"la2":30.254,"lo1":-89.0895,"lo2":-89.0444,"dy":0.0017,"dx":0.0017,"nx":28,"ny":28,"refTime":"2025-12-04T03:00:00:Z","depth":0,"parameterNumber":2,"parameterNumberName":"U-component_of_WINDS"},"data":[0,0,0,0,0,0,0,0,0,0,0,0,0,0,0,0,0,0,0,0,0,0,0,0,0,0,0,0,0,0,0,0,0,0,0,0,0,0,0,0,0,0,0,0,0,0,0,0,0,0,0,0,0,0,0,0,0,0,-6.1735,-6.1737,0,-6.1893,-6.1895,-6.1897,-6.1792,-6.1787,-6.1782,-6.1777,-6.1936,-6.1945,-6.1953,0,0,0,0,0,0,0,0,0,0,0,0,0,-6.1338,-6.1346,-6.1735,-6.1737,-6.1739,-6.1893,-6.1895,-6.1897,-6.1793,-6.1787,-6.1781,-6.1775,-6.1934,-6.1944,-6.1954,0,0,0,0,0,0,0,0,0,0,0,0,0,-6.1505,-6.1349,-6.1735,-6.1705,-6.1704,-6.1893,-6.1895,-6.1898,-6.1794,-6.1786,-6.1779,-6.1773,-6.193,-6.1943,-6.1956,-6.2181,0,0,-6.1996,-6.2001,0,0,0,0,0,0,0,0,-6.1496,-6.152,-6.1708,-6.1708,-6.1707,-6.1815,-6.1813,-6.1993,-6.1796,-6.176,-6.1777,-6.1769,-6.1902,-6.1917,-6.1962,-6.2188,-6.2195,-6.1997,-6.2005,-6.201,-6.2014,0,0,0,0,0,0,0,-6.1484,-6.1512,-6.1797,-6.171,-6.171,-6.1683,-6.1699,-6.1847,-6.1869,-6.1762,-6.1755,-6.1775,-6.19,-6.195,-6.1965,-6.2197,-6.1996,-6.2008,-6.2016,-6.2021,-6.2613,-6.2621,0,0,0,0,0,0,-6.1476,-6.1503,-6.1792,-6.1802,-6.1581,-6.1696,-6.1714,-6.1788,-6.1867,-6.1872,-6.1781,-6.177,-6.1931,-6.195,-6.197,-6.2236,-6.201,-6.2022,-6.203,-6.2606,-6.2615,-6.2624,0,0,0,0,0,0,-6.1468,-6.1502,-6.1786,-6.1651,-6.1685,-6.1711,-6.1795,-6.1795,-6.1844,-6.1882,-6.1885,-6.1828,-6.1926,-6.1952,-6.2129,-6.224,-6.2028,-6.204,-6.2596,-6.2609,-6.2619,-6.2772,0,0,0,0,0,0,-6.1457,-6.15,-6.1587,-6.1654,-6.1693,-6.1943,-6.1802,-6.1803,-6.1867,-6.1854,-6.1926,-6.1931,-6.1922,-6.211,-6.2142,-6.2254,-6.205,-6.2586,-6.2602,-6.2616,-6.2757,-6.2787,-6.2813,0,0,0,0,0,-6.1443,-6.1623,-6.1592,-6.1627,-6.1801,-6.195,-6.1972,-6.1959,-6.1877,-6.1963,-6.1987,-6.1929,-6.2224,-6.2129,-6.2164,-6.2282,-6.2579,-6.2597,-6.2615,-6.2744,-6.2781,-6.2813,0,0,0,0,0,0,-6.1567,-6.1631,-6.1597,-6.1804,-6.1873,-6.1932,-6.204,-6.1999,-6.2091,-6.2074,-6.2053,-6.207,-6.2255,-6.2287,-6.218,-6.2503,-6.2388,-6.2414,-6.2475,-6.251,-6.2538,-6.2525,-6.2061,0,0,0,0,0,-6.1619,-6.1735,-6.1785,-6.1963,-6.1999,-6.2014,-6.2078,-6.2063,-6.2132,-6.216,-6.2197,-6.2265,-6.2373,-6.2444,-6.2546,-6.2762,-6.2775,-6.2861,-6.2889,-6.2912,-6.2933,-6.3048,-6.3085,-6.2682,-6.2682,-6.2682,0,0,-6.1726,-6.1775,-6.185,-6.1989,-6.204,-6.2159,-6.2039,-6.2171,-6.2258,-6.2179,-6.2347,-6.2378,-6.2453,-6.265,-6.2739,-6.2682,-6.3048,-6.2935,-6.2953,-6.2961,-6.307,-6.3108,-6.3142,-6.2694,-6.2692,-6.269,0,0,-6.1981,-6.2033,-6.2185,-6.2239,-6.2318,-6.2327,-6.2364,-6.2431,-6.2448,-6.2617,-6.256,-6.2664,-6.2851,-6.2906,-6.2958,-6.3237,-6.3186,-6.3271,-6.3417,-6.3529,-6.356,-6.3588,-6.3684,-6.3719,-6.3293,-6.3293,-6.3293,0,-6.2104,-6.2282,-6.2268,-6.2404,-6.2466,-6.2402,-6.2555,-6.2608,-6.2716,-6.276,-6.2696,-6.2928,-6.2975,-6.3182,-6.325,-6.3297,-6.3336,-6.326,-6.3557,-6.3585,-6.3611,-6.3702,-6.3739,-6.3303,-6.3301,-6.3301,-6.33,0,-6.2427,-6.2552,-6.2666,-6.2773,-6.2848,-6.2992,-6.2998,-6.3076,-6.3055,-6.3071,-6.3243,-6.3297,-6.3407,-6.3457,-6.3437,-6.3662,-6.3624,-6.356,-6.3443,-6.3659,-6.3744,-6.3779,-6.3316,-6.3313,-6.331,-6.3308,0,0,-6.2761,-6.286,-6.2901,-6.2948,-6.3032,-6.3127,-6.3269,-6.3378,-6.3443,-6.3521,-6.3636,-6.3797,-6.3738,-6.3798,-6.3784,-6.3883,-6.4096,-6.3806,-6.3807,-6.3855,-6.4344,-6.4388,-6.4429,-6.4065,-6.4072,-6.4077,-6.4336,0,-6.3018,-6.3264,-6.3256,-6.3485,-6.3599,-6.3541,-6.3664,-6.3728,-6.3747,-6.3845,-6.3866,-6.3979,-6.3895,-6.393,-6.4026,-6.405,-6.4193,-6.4032,-6.4169,-6.4174,-6.4147,-6.4474,-6.4522,-6.4763,-6.437,-6.4375,-6.4379,0,-6.335,-6.3439,-6.3679,-6.3745,-6.3793,-6.3903,-6.4001,-6.4098,-6.4169,-6.4176,-6.4244,-6.4215,-6.4356,-6.424,-6.4433,-6.4323,-6.438,-6.4401,-6.441,-6.4418,-6.4286,-6.4487,-6.484,-6.4875,-6.4432,-6.4428,-6.4424,0,-6.3564,-6.3745,-6.3911,-6.3954,-6.4036,-6.4115,-6.4153,-6.4217,-6.4283,-6.437,-6.4411,-6.4514,-6.4569,-6.4648,-6.4647,-6.4563,-6.4841,-6.4725,-6.4848,-6.4848,-6.4905,-6.4901,-6.5268,-6.495,-6.495,-6.4949,-6.4948,0,-6.3848,-6.3997,-6.4008,-6.411,-6.4274,-6.4265,-6.4427,-6.4457,-6.4515,-6.462,-6.4579,-6.4678,-6.4673,-6.4774,-6.4774,-6.4932,-6.4958,-6.4966,-6.4963,-6.4967,-6.4966,-6.5,-6.4982,-6.4959,-6.4956,-6.4955,-6.4953,0,-6.4113,-6.4127,-6.4304,-6.4369,-6.4389,-6.4506,-6.456,-6.4657,-6.4673,-6.4808,-6.4839,-6.4864,-6.4981,-6.4989,-6.5124,-6.5124,-6.5315,-6.5296,-6.5291,-6.5285,-6.5406,-6.5393,-6.5805,-6.5857,-6.5509,-6.5513,-6.5516,0,-6.4291,-6.4404,-6.4481,-6.4549,-6.4592,-6.4703,-6.477,-6.4765,-6.4837,-6.4927,-6.5012,-6.5125,-6.5214,-6.5404,-6.5433,-6.5536,-6.5517,-6.5655,-6.5532,-6.5532,-6.5514,-6.5505,-6.5515,-6.5676,-6.568,-6.5683,-6.5686,0,-6.4605,-6.4606,-6.4705,-6.4808,-6.489,-6.497,-6.5044,-6.5102,-6.5106,-6.5189,-6.5308,-6.5378,-6.5516,-6.5628,-6.5729,-6.5766,-6.5726,-6.5725,-6.5758,-6.5761,-6.5751,-6.5754,-6.5351,-6.5714,-6.5712,-6.5709,-6.5708,-6.5707,-6.4828,-6.4925,-6.4994,-6.5106,-6.5162,-6.5233,-6.5326,-6.5355,-6.5455,-6.5567,-6.5559,-6.569,-6.5759,-6.589,-6.5936,-6.6038,-6.5991,-6.604,-6.6051,-6.6062,-6.6073,-6.574,-6.6057,-6.6056,-6.6055,-6.6054,-6.6054,0,-6.5136,-6.5178,-6.5281,-6.5387,-6.5475,-6.5433,-6.5514,-6.5589,-6.5705,-6.5773,-6.5863,-6.5999,-6.6108,-6.6148,-6.6253,-6.6327,-6.6311,-6.6355,-6.6346,-6.6355,-6.6111,-6.6069,-6.6365,-6.6365,-6.6365,-6.6365,-6.6365,-6.6365,-6.5306,-6.5466,-6.5477,-6.5664,-6.5705,-6.5834,-6.5883,-6.5948,-6.6002,-6.6157,-6.6247,-6.6273,-6.6329,-6.6439,-6.6536,-6.6545,-6.6584,-6.6634,-6.6635,-6.6404,-6.6373,-6.6343,-6.6303,-6.6644,-6.6644,-6.687,-6.6872,-6.6874]},{"header":{"parameterUnit":"m.s-1","parameterCategory":1,"la1":30.2991,"la2":30.254,"lo1":-89.0895,"lo2":-89.0444,"dy":0.0017,"dx":0.0017,"nx":28,"ny":28,"refTime":"2025-12-04T03:00:00:Z","depth":0,"parameterNumber":3,"parameterNumberName":"V-component_of_WINDS"},"data":[0,0,0,0,0,0,0,0,0,0,0,0,0,0,0,0,0,0,0,0,0,0,0,0,0,0,0,0,0,0,0,0,0,0,0,0,0,0,0,0,0,0,0,0,0,0,0,0,0,0,0,0,0,0,0,0,0,0,1.6669,1.667,0,1.6748,1.6749,1.675,1.6716,1.6714,1.6712,1.671,1.6788,1.6792,1.6795,0,0,0,0,0,0,0,0,0,0,0,0,0,1.6487,1.6491,1.6669,1.667,1.6671,1.6748,1.6749,1.675,1.6716,1.6714,1.6712,1.671,1.6787,1.6791,1.6796,0,0,0,0,0,0,0,0,0,0,0,0,0,1.6566,1.6492,1.6669,1.6664,1.6664,1.6748,1.6749,1.675,1.6717,1.6714,1.6711,1.6708,1.6785,1.6791,1.6796,1.6889,0,0,1.6814,1.6817,0,0,0,0,0,0,0,0,1.6562,1.6573,1.6664,1.6664,1.6665,1.6719,1.6713,1.6797,1.6718,1.6697,1.671,1.6707,1.6767,1.6774,1.6795,1.6893,1.6896,1.6815,1.6818,1.6821,1.6822,0,0,0,0,0,0,0,1.6556,1.6569,1.67,1.6665,1.6666,1.6657,1.6665,1.6729,1.6747,1.6698,1.6696,1.6706,1.6767,1.679,1.6797,1.6897,1.6814,1.682,1.6823,1.6825,1.7075,1.7078,0,0,0,0,0,0,1.6551,1.6565,1.6698,1.6703,1.6605,1.6662,1.6671,1.6705,1.6746,1.675,1.6708,1.6704,1.6781,1.679,1.6799,1.6911,1.682,1.6826,1.6829,1.7072,1.7076,1.7079,0,0,0,0,0,0,1.6547,1.6563,1.6695,1.6633,1.6649,1.6668,1.6706,1.6708,1.673,1.6754,1.6756,1.6728,1.6779,1.6791,1.6867,1.6913,1.6828,1.6834,1.7068,1.7073,1.7077,1.7134,0,0,0,0,0,0,1.6542,1.6562,1.6598,1.6634,1.6653,1.6762,1.6709,1.6711,1.6741,1.6736,1.6773,1.6777,1.6778,1.6859,1.6873,1.6919,1.6838,1.7064,1.707,1.7076,1.7128,1.714,1.7151,0,0,0,0,0,1.6536,1.661,1.66,1.6616,1.6698,1.6765,1.6775,1.6776,1.6745,1.6781,1.6796,1.6776,1.6906,1.6867,1.6883,1.6931,1.7061,1.7068,1.7075,1.7123,1.7138,1.715,0,0,0,0,0,0,1.6577,1.6615,1.6604,1.6692,1.6726,1.6759,1.6804,1.6792,1.6834,1.6827,1.6826,1.6835,1.6913,1.693,1.6886,1.7023,1.6979,1.6989,1.701,1.7024,1.7035,1.7029,1.6843,0,0,0,0,0,1.6597,1.6649,1.6678,1.6753,1.6771,1.6785,1.6814,1.6812,1.6846,1.686,1.688,1.6914,1.6962,1.6994,1.7039,1.7131,1.7138,1.7172,1.7183,1.7192,1.7201,1.7251,1.7266,1.7103,1.7102,1.7102,0,0,1.6637,1.6664,1.6697,1.6763,1.6788,1.6841,1.6797,1.6855,1.6894,1.6868,1.6942,1.6958,1.6995,1.7079,1.7117,1.7095,1.7248,1.7201,1.7208,1.7212,1.726,1.7275,1.7289,1.7107,1.7107,1.7106,0,0,1.6739,1.6765,1.683,1.6857,1.6897,1.6906,1.6922,1.6958,1.6968,1.7042,1.7024,1.707,1.7153,1.7181,1.7205,1.7318,1.7301,1.7333,1.7391,1.7439,1.7452,1.7464,1.7504,1.7518,1.7342,1.7342,1.7342,0,1.6784,1.6864,1.6865,1.6925,1.6954,1.6935,1.7001,1.7027,1.7079,1.71,1.7075,1.718,1.7203,1.7293,1.7321,1.7342,1.7359,1.7329,1.7451,1.7462,1.7473,1.7511,1.7526,1.7346,1.7345,1.7345,1.7345,0,1.6918,1.6974,1.7022,1.7075,1.7109,1.7172,1.7182,1.7217,1.7212,1.7223,1.7299,1.7327,1.7378,1.7399,1.7394,1.7489,1.7474,1.745,1.7405,1.7492,1.7528,1.7542,1.7351,1.735,1.7349,1.7348,0,0,1.7046,1.71,1.7117,1.7141,1.7185,1.7227,1.7289,1.7341,1.737,1.7408,1.7459,1.7531,1.7509,1.7537,1.7535,1.7578,1.7666,1.7548,1.7549,1.7569,1.7772,1.7789,1.7806,1.7655,1.7658,1.766,1.7768,0,1.715,1.726,1.7263,1.7363,1.7415,1.7397,1.7451,1.7483,1.7496,1.7541,1.7554,1.7605,1.7572,1.7589,1.7631,1.7646,1.7706,1.7638,1.7702,1.7704,1.7693,1.7825,1.7844,1.7945,1.7782,1.7785,1.7787,0,1.7287,1.733,1.7435,1.7472,1.7493,1.7542,1.759,1.7633,1.7669,1.7675,1.7707,1.77,1.7762,1.7716,1.7801,1.7755,1.7782,1.7793,1.7797,1.7803,1.775,1.7834,1.7977,1.7992,1.7809,1.7807,1.7805,0,1.737,1.7454,1.7528,1.7549,1.7593,1.7628,1.7648,1.7681,1.7712,1.7753,1.7773,1.7821,1.7847,1.7884,1.7889,1.7855,1.7976,1.7929,1.7982,1.7982,1.8008,1.8006,1.8157,1.8025,1.8025,1.8025,1.8024,0,1.7486,1.7551,1.7566,1.7612,1.7684,1.7687,1.7758,1.7775,1.7805,1.7853,1.7841,1.7886,1.789,1.7937,1.7941,1.8012,1.8023,1.803,1.803,1.8031,1.803,1.8047,1.804,1.8029,1.8028,1.8027,1.8026,0,1.759,1.7603,1.7683,1.7719,1.773,1.7782,1.7812,1.7855,1.7867,1.7928,1.7943,1.7961,1.8015,1.8024,1.8087,1.809,1.8174,1.8167,1.8163,1.8162,1.8214,1.8209,1.8381,1.8403,1.8257,1.8259,1.826,0,1.7663,1.7713,1.7755,1.7788,1.781,1.7861,1.7893,1.7898,1.7931,1.7977,1.8015,1.8068,1.811,1.8197,1.8215,1.8264,1.8258,1.8315,1.8265,1.8264,1.8259,1.8256,1.8261,1.8324,1.8326,1.8327,1.8328,0,1.7792,1.7796,1.7843,1.7893,1.7932,1.7971,1.8008,1.8034,1.8044,1.8082,1.8138,1.8172,1.8237,1.829,1.8338,1.8357,1.8345,1.8344,1.8359,1.836,1.8355,1.8358,1.8189,1.834,1.8339,1.8338,1.8337,1.8337,1.7883,1.7926,1.7963,1.8016,1.8045,1.808,1.8123,1.8141,1.8188,1.8242,1.8242,1.8303,1.8338,1.8402,1.8425,1.8472,1.8454,1.8475,1.848,1.8485,1.8491,1.8348,1.8481,1.8481,1.848,1.848,1.848,0,1.801,1.8033,1.8082,1.8135,1.8177,1.8163,1.8203,1.8239,1.8293,1.8328,1.837,1.8435,1.8486,1.8509,1.8559,1.8593,1.8588,1.8606,1.8603,1.8608,1.8504,1.8486,1.8609,1.8609,1.8609,1.8609,1.8609,1.8609,1.8081,1.8155,1.8164,1.8251,1.8274,1.8335,1.8359,1.8391,1.8419,1.8492,1.8535,1.855,1.8579,1.8632,1.8678,1.8684,1.8703,1.8723,1.8726,1.8628,1.8615,1.8603,1.8586,1.8727,1.8727,1.8826,1.8827,1.8827]}]]